Location: Peebles
(55.6412°N, 3.1714°W)
Time: 13:52:57
(UTC+01:00)

USA 245 - Pass Details

Date: 26 September 2021
Orbit: 268 x 1012 km, 97.9° (Epoch: 15 October)

Event Time Altitude Azimuth Distance (km) Brightness Sun altitude
Exits shadow 22:28:56 61° 278° (W) 776 4.1 -27.6°
Drops below altitude 10° 22:33:50 10° 341° (NNW) 2,370 7.3 -28.1°
Sets 22:36:29 0° 344° (NNW) 3,421 8.3 -28.3°
